Weather History for Tabuk, Saudi Arabia

Change the Weather History Date:

Sunday, November 18, 2012

  Actual Average Record
Temperature  
Mean Temperature 66 °F -  
Max Temperature 78 °F 69 °F 84 °F (1998)
Min Temperature 54 °F 44 °F 46 °F (2000)
Cooling Degree Days 1    
Growing Degree Days 16 (Base 50)    
Moisture  
Dew Point 46 °F    
Average Humidity 52    
Maximum Humidity 77    
Minimum Humidity 19    
Precipitation  
Precipitation 0.00 in - - ()
Sea Level Pressure  
Sea Level Pressure 29.94 in    
Wind  
Wind Speed 3 mph ()    
Max Wind Speed 18 mph    
Max Gust Speed -    
Visibility 5.8 miles    
Events Rain    
Averages and records for this station are not official NWS values.
T = Trace of Precipitation, MM = Missing Value Source: Averaged Metar Reports

Daily Weather History Graph

Daily Weather History Graph

Search for Another Location

Airport:

Trip Planner

Search our weather history database for the weather conditions in past years. The results will help you decide how hot, cold, wet, or windy it might be!

Date:

Astronomy

Nov. 18, 2012 Rise Set
Actual Time 6:58 AM AST 5:39 PM AST
Civil Twilight 6:33 AM AST 6:04 PM AST
Nautical Twilight 6:04 AM AST 6:32 PM AST
Astronomical Twilight 5:36 AM AST 7:00 PM AST
Moon 11:14 AM AST (11/18) 10:29 PM AST (11/18)
Length of Visible Light 11h 30m
Length of Day
10h 40m
Waxing Crescent, 26% of the Moon is Illuminated
Nov 18
Waxing Crescent
Nov 20
First Quarter
Nov 28
Full
Dec 6
Last Quarter
Dec 13
New

Hourly Weather History & Observations

Time (AST) Temp. Dew Point Humidity Pressure Visibility Wind Dir Wind Speed Gust Speed Precip Events Conditions
12:00 AM 64 °F 50 °F 50% 29.87 in 6 mi Calm Calm - -   Partly Cloudy
12:00 AM 64.4 °F 50.0 °F 59% 29.98 in 6.2 mi Calm Calm - N/A   Scattered Clouds
1:00 AM 62.6 °F 48.2 °F 59% 29.98 in 6.2 mi Calm Calm - N/A   Scattered Clouds
2:00 AM 62.6 °F 53.6 °F 72% 29.95 in 6.2 mi SSW 6.9 mph - N/A   Scattered Clouds
3:00 AM 62 °F 54 °F 66% 29.86 in 6 mi Calm Calm - -   Scattered Clouds
3:00 AM 60.8 °F 53.6 °F 77% 29.95 in 6.2 mi Calm Calm - N/A   Partly Cloudy
4:00 AM 57.2 °F 50.0 °F 77% 29.95 in 6.2 mi Calm Calm - N/A   Partly Cloudy
5:00 AM 55.4 °F 48.2 °F 77% 29.95 in 6.2 mi Calm Calm - N/A   Partly Cloudy
6:00 AM 55 °F 46 °F 64% 29.86 in 6 mi Calm Calm - -   Scattered Clouds
6:00 AM 55.4 °F 46.4 °F 72% 29.95 in 6.2 mi Calm Calm - N/A   Partly Cloudy
7:00 AM 55.4 °F 46.4 °F 72% 29.98 in 6.2 mi SE 4.6 mph - N/A   Scattered Clouds
8:00 AM 59.0 °F 46.4 °F 63% 29.98 in 6.2 mi SSE 3.5 mph - N/A   Scattered Clouds
9:00 AM 61 °F 52 °F 64% 29.91 in 6 mi Calm Calm - -   Partly Cloudy
9:00 AM 60.8 °F 51.8 °F 72% 29.98 in 6.2 mi Calm Calm - N/A Rain Light Rain
10:00 AM 64.4 °F 41.0 °F 42% 30.01 in 6.2 mi Calm Calm - N/A   Scattered Clouds
11:00 AM 71.6 °F 41.0 °F 33% 29.98 in 6.2 mi Calm Calm - N/A   Partly Cloudy
12:00 PM 75 °F 41 °F 19% 29.88 in 6 mi Calm Calm - -   Partly Cloudy
12:00 PM 75.2 °F 41.0 °F 29% 29.98 in 6.2 mi Calm Calm - N/A   Scattered Clouds
1:00 PM 75.2 °F 41.0 °F 29% 29.95 in 6.2 mi NNW 5.8 mph - N/A   Scattered Clouds
2:00 PM 77.0 °F 41.0 °F 28% 29.89 in 6.2 mi Calm Calm - N/A   Scattered Clouds
3:00 PM 75 °F 43 °F 21% 29.79 in 6 mi Calm Calm - -   Partly Cloudy
3:00 PM 75.2 °F 42.8 °F 31% 29.89 in 6.2 mi Calm Calm - N/A   Scattered Clouds
4:00 PM 78.8 °F 39.2 °F 24% 29.86 in 6.2 mi NNW 10.4 mph - N/A   Scattered Clouds
5:00 PM 75.2 °F 42.8 °F 31% 29.89 in 6.2 mi North 4.6 mph - N/A   Mostly Cloudy
5:36 PM 71.6 °F 39.2 °F 31% 29.92 in 1.9 mi NNW 16.1 mph - N/A   Widespread Dust
6:00 PM 69 °F 41 °F 25% 29.88 in 2 mi NW 18.4 mph - -   Blowing Sand
6:00 PM 69.8 °F 41.0 °F 35% 29.95 in 1.9 mi NW 18.4 mph - N/A   Widespread Dust
7:00 PM 60.8 °F 48.2 °F 63% 29.98 in 6.2 mi NNW 11.5 mph - N/A Rain Rain
8:00 PM 59.0 °F 48.2 °F 67% 29.98 in 6.2 mi NNW 11.5 mph - N/A   Mostly Cloudy
9:00 PM 59 °F 48 °F 58% 29.94 in 6 mi NNW 5.8 mph - -   Partly Cloudy
9:00 PM 59.0 °F 48.2 °F 67% 29.98 in 6.2 mi NNW 5.8 mph - N/A   Scattered Clouds
10:00 PM 59.0 °F 48.2 °F 67% 30.01 in 6.2 mi NW 15.0 mph - N/A   Scattered Clouds
11:00 PM 57.2 °F 46.4 °F 67% 30.01 in 6.2 mi NNW 6.9 mph - N/A   Scattered Clouds